Regional Weather Roundup
Issued by NWS

Home | Current Version | Previous Version | Graphics & Text | Print | Product List | Glossary Off
Versions: 1 2 3 4 5 6 7 8 9 10 11 12 13 14 15 16 17 18 19 20 21 22 23 24 25 26 27

000
ASUS45 KBOU 241506
RWRCO

WEATHER ROUNDUP FOR COLORADO
NATIONAL WEATHER SERVICE DENVER/BOULDER CO
900 AM MDT THU APR 24 2014

NOTE: "FAIR" INDICATES FEW OR NO CLOUDS BELOW 12000 FEET WITH NO
SIGNIFICANT WEATHER AND/OR OBSTRUCTIONS TO VISIBILITY.

COZ001>005-013-030-031-241600-
...NORTHWEST COLORADO...

CITY           SKY/WX    TMP DP  RH WIND       PRES   REMARKS
CRAIG          SUNNY     36  22  56 NE5       30.15S
HAYDEN         SUNNY     36  18  48 E6        30.17S
MEEKER         MOSUNNY   37  17  44 CALM      30.15F
MOUNT WERNER   SUNNY     21  10  63 W15       30.15R WCI   8
STEAMBOAT SPGS SUNNY     35  14  41 NE3       30.15S
WALDEN         SUNNY     32  12  43 SW22G28   30.09S WCI  19
$$

COZ006>008-011-241600-
...WEST CENTRAL VALLEYS...

CITY           SKY/WX    TMP DP  RH WIND       PRES   REMARKS
GRAND JUNCTION MOSUNNY   44  13  28 SE12      30.16S
MONTROSE       MOSUNNY   43  14  31 SE5       30.19S
EAGLE          SUNNY     34  16  47 CALM      30.20F
RIFLE          MOSUNNY   38  18  44 CALM      30.18S
DELTA          NOT AVBL
NUCLA          NOT AVBL
$$

COZ017>023-064>068-241600-
...SOUTHWEST COLORADO...

CITY           SKY/WX    TMP DP  RH WIND       PRES   REMARKS
DURANGO        SUNNY     40  12  32 E7        30.15R
CORTEZ         SUNNY     43  12  28 CALM      30.15S
PAGOSA SPRINGS SUNNY     40   9  28 CALM      30.17S
TELLURIDE      MOSUNNY   32   7  34 CALM      30.18S
WOLF CREEK PAS SUNNY     25   3  39 SW14      30.19S WCI  13
$$

COZ009-010-012-014-032>034-037-058>063-241600-
...CENTRAL COLORADO...

CITY           SKY/WX    TMP DP  RH WIND       PRES   REMARKS
ASPEN          SUNNY     35  13  40 VRB3      30.15S
BUENA VISTA    SUNNY     41   4  21 N15       30.08R
COPPER MTN     SUNNY     21   7  53 W7G16     30.15S WCI  13
BERTHOUD PASS  PTSUNNY   10   0  61 NW33G40   30.07R WCI -13
COTTONWOOD PAS SUNNY     36 -18   9 SW8G26    30.10R
GUNNISON       SUNNY     34  12  40 CALM      30.20S
KREMMLING      SUNNY     36  12  38 CALM      30.16F
LEADVILLE      SUNNY     27   4  37 N7        30.14R WCI  19
MONARCH PASS   SUNNY     18   7  62 W38G44    30.22R WCI  -4
SALIDA         SUNNY     46   5  18 SW7       30.16R
SUNLIGHT       SUNNY     27  12  54 CALM      30.19R
WILKERSON PASS SUNNY     27   3  36 CALM      30.11R
$$

COZ069>075-241600-
...SAN LUIS VALLEY/SANGRE DE CRISTO MOUNTAINS...

CITY           SKY/WX    TMP DP  RH WIND       PRES   REMARKS
ALAMOSA        SUNNY     40  11  30 CALM      30.14S
LA VETA PASS   SUNNY     30   7  37 SW13G23   30.10S WCI  20
SAGUACHE       SUNNY     39   7  26 NW9       30.16R
$$

COZ035-036-038>040-241600-
...NORTHERN COLORADO FRONT RANGE...

CITY           SKY/WX    TMP DP  RH WIND       PRES   REMARKS
DENVER INTL AP MOSUNNY   44  19  36 W3        30.03R
DMNS CITY PARK   N/A     44  21  40 SW8       30.03S
AURORA         SUNNY     43  21  42 S3        30.04R
FRONT RANGE AP NOT AVBL
ERIE MUNI ARPT SUNNY     46  24  42 SE9       30.01F
BOULDER MUN AP SUNNY     46  23  39 E6        30.00S
CENTENNIAL     MOSUNNY   41  21  44 S6        30.04R
BROOMFIELD     MOSUNNY   45  25  45 SE10      30.02S
FORT COLLINS   SUNNY     45  18  33 CALM      30.02F
LONGMONT       NOT AVBL
$$

COZ041-046-047-076>085-087-088-241600-
...PIKES PEAK/PALMER DIVIDE AND SOUTHERN FOOTHILLS...

CITY           SKY/WX    TMP DP  RH WIND       PRES   REMARKS
COLO. SPRINGS  MOSUNNY   43  29  57 S10       30.06S
A. F. ACADEMY  SUNNY     40  25  54 S6        30.05S
ELLICOTT       NOT AVBL
FALCON         SUNNY     41  25  51 SW10G16   30.07S
FORT CARSON    SUNNY     46  28  48 S15       30.04F
LIMON          SUNNY     44  19  36 NW15      30.04R
MONUMENT HILL  SUNNY     34  21  60 S5        30.04R WCI  30
TRINIDAD       SUNNY     45  25  45 CALM      30.08R
$$

COZ042>045-048>051-090-091-241600-
...NORTHEAST COLORADO...

CITY           SKY/WX    TMP DP  RH WIND       PRES   REMARKS
GREELEY ARPT   SUNNY     52   9  17 W8        30.02S
AKRON          SUNNY     49  22  34 NW24G31   29.99S
BURLINGTON     SUNNY     53  18  25 NW23G29   29.99R
WRAY           SUNNY     55  20  26 NW20G30   29.96S
STERLING       NOT AVBL
HOLYOKE        NOT AVBL
FORT MORGAN    NOT AVBL
$$

COZ086-089-092>099-241600-
...SOUTHEAST COLORADO...

CITY           SKY/WX    TMP DP  RH WIND       PRES   REMARKS
PUEBLO         SUNNY     49  28  44 SE8       30.05F
LA JUNTA       SUNNY     50  27  40 NW13      30.05S
LAMAR          SUNNY     52  29  41 NW14      30.00R
SPRINGFIELD      N/A     49  29  46 NW25G33   30.02R
$$



USA.gov is the U.S. government's official web portal to all federal, state and local government web resources and services.